TimeEST,TemperatureF,Dew PointF,Humidity,Sea Level PressureIn,VisibilityMPH,Wind Direction,Wind SpeedMPH,Gust SpeedMPH,PrecipitationIn,Events,Conditions,WindDirDegrees,DateUTC
12:15 AM,27.1,25.9,95,30.48,7.0,Calm,Calm,-,N/A,,Clear,0,2012-11-17 05:15:00
12:35 AM,27.9,27.0,96,30.48,7.0,Calm,Calm,-,N/A,,Clear,0,2012-11-17 05:35:00
12:55 AM,27.9,26.8,96,30.48,5.0,Calm,Calm,-,N/A,,Clear,0,2012-11-17 05:55:00
1:15 AM,26.8,25.7,96,30.48,7.0,Calm,Calm,-,N/A,,Clear,0,2012-11-17 06:15:00
1:35 AM,27.3,26.2,96,30.48,7.0,Calm,Calm,-,N/A,,Clear,0,2012-11-17 06:35:00
1:55 AM,27.1,26.1,96,30.49,7.0,Calm,Calm,-,N/A,,Clear,0,2012-11-17 06:55:00
2:15 AM,27.7,26.8,96,30.49,7.0,Calm,Calm,-,N/A,,Clear,0,2012-11-17 07:15:00
2:35 AM,26.8,25.7,96,30.50,7.0,Calm,Calm,-,N/A,,Clear,0,2012-11-17 07:35:00
2:55 AM,25.3,24.1,95,30.49,5.0,Calm,Calm,-,N/A,,Clear,0,2012-11-17 07:55:00
3:15 AM,25.7,24.8,96,30.50,4.0,Calm,Calm,-,N/A,,Clear,0,2012-11-17 08:15:00
3:35 AM,28.0,27.5,98,30.50,3.0,Calm,Calm,-,N/A,,Clear,0,2012-11-17 08:35:00
3:55 AM,27.1,26.2,96,30.51,4.0,Calm,Calm,-,N/A,,Clear,0,2012-11-17 08:55:00
4:15 AM,26.4,25.7,97,30.51,4.0,Calm,Calm,-,N/A,,Clear,0,2012-11-17 09:15:00
4:35 AM,25.2,24.3,96,30.52,7.0,Calm,Calm,-,N/A,,Clear,0,2012-11-17 09:35:00
4:55 AM,25.7,25.2,98,30.53,5.0,Calm,Calm,-,N/A,,Clear,0,2012-11-17 09:55:00
5:15 AM,27.7,27.0,97,30.53,4.0,Calm,Calm,-,N/A,,Clear,0,2012-11-17 10:15:00
5:35 AM,24.3,23.7,98,30.53,5.0,Calm,Calm,-,N/A,,Clear,0,2012-11-17 10:35:00
5:55 AM,23.7,23.2,98,30.53,4.0,Calm,Calm,-,N/A,,Clear,0,2012-11-17 10:55:00
6:15 AM,25.3,24.6,97,30.53,4.0,Calm,Calm,-,N/A,,Clear,0,2012-11-17 11:15:00
6:35 AM,25.5,25.0,98,30.53,3.0,Calm,Calm,-,N/A,,Clear,0,2012-11-17 11:35:00
6:55 AM,25.3,24.8,98,30.54,4.0,Calm,Calm,-,N/A,,Clear,0,2012-11-17 11:55:00
7:15 AM,25.9,24.8,96,30.54,4.0,Calm,Calm,-,N/A,,Clear,0,2012-11-17 12:15:00
7:35 AM,24.6,23.7,96,30.54,2.5,Calm,Calm,-,N/A,,Clear,0,2012-11-17 12:35:00
7:55 AM,23.9,23.4,98,30.55,3.0,Calm,Calm,-,N/A,,Clear,0,2012-11-17 12:55:00
8:15 AM,25.5,24.6,96,30.55,3.0,Calm,Calm,-,N/A,,Clear,0,2012-11-17 13:15:00
8:35 AM,28.0,27.3,97,30.56,3.0,Calm,Calm,-,N/A,,Clear,0,2012-11-17 13:35:00
8:55 AM,30.0,29.3,97,30.56,2.0,Calm,Calm,-,N/A,,Clear,0,2012-11-17 13:55:00
9:15 AM,33.1,32.0,96,30.56,3.0,Calm,Calm,-,N/A,,Clear,0,2012-11-17 14:15:00
9:35 AM,36.1,34.9,95,30.57,4.0,Calm,Calm,-,N/A,,Clear,0,2012-11-17 14:35:00
9:55 AM,38.8,36.3,91,30.57,5.0,Calm,Calm,-,N/A,,Clear,0,2012-11-17 14:55:00
10:15 AM,42.1,35.8,78,30.57,7.0,Calm,Calm,-,N/A,,Clear,0,2012-11-17 15:15:00
10:35 AM,43.9,33.1,66,30.57,10.0,Calm,Calm,-,N/A,,Clear,0,2012-11-17 15:35:00
10:55 AM,46.6,32.2,57,30.57,10.0,Calm,Calm,-,N/A,,Clear,0,2012-11-17 15:55:00
11:15 AM,48.2,32.0,54,30.57,10.0,Calm,Calm,-,N/A,,Clear,0,2012-11-17 16:15:00
11:35 AM,50.4,32.4,50,30.56,10.0,SSE,6.9,-,N/A,,Clear,160,2012-11-17 16:35:00
11:55 AM,50.9,31.3,47,30.55,10.0,South,6.9,-,N/A,,Clear,180,2012-11-17 16:55:00
12:15 PM,51.4,30.7,45,30.55,10.0,South,9.2,-,N/A,,Clear,180,2012-11-17 17:15:00
12:35 PM,52.5,29.8,42,30.54,10.0,SSE,8.1,-,N/A,,Clear,160,2012-11-17 17:35:00
12:55 PM,52.5,29.7,42,30.53,10.0,SSE,8.1,-,N/A,,Clear,160,2012-11-17 17:55:00
1:15 PM,52.9,29.5,41,30.53,10.0,South,3.5,-,N/A,,Clear,190,2012-11-17 18:15:00
1:35 PM,52.9,29.5,41,30.53,10.0,South,3.5,-,N/A,,Clear,180,2012-11-17 18:35:00
1:55 PM,53.4,29.8,40,30.53,10.0,SE,5.8,-,N/A,,Clear,140,2012-11-17 18:55:00
2:15 PM,53.6,30.0,41,30.53,10.0,Calm,Calm,-,N/A,,Clear,0,2012-11-17 19:15:00
2:35 PM,53.6,30.2,41,30.52,10.0,SSE,3.5,-,N/A,,Clear,150,2012-11-17 19:35:00
2:55 PM,53.6,29.8,40,30.52,10.0,Calm,Calm,-,N/A,,Clear,0,2012-11-17 19:55:00
3:15 PM,53.6,30.0,41,30.52,10.0,SSW,3.5,-,N/A,,Clear,210,2012-11-17 20:15:00
3:35 PM,54.3,29.8,39,30.51,10.0,Calm,Calm,-,N/A,,Clear,0,2012-11-17 20:35:00
3:55 PM,53.8,29.7,40,30.51,10.0,Calm,Calm,-,N/A,,Clear,0,2012-11-17 20:55:00
4:15 PM,53.6,28.9,39,30.51,10.0,SSE,4.6,-,N/A,,Clear,160,2012-11-17 21:15:00
4:35 PM,52.7,29.7,41,30.51,10.0,Calm,Calm,-,N/A,,Clear,0,2012-11-17 21:35:00
4:55 PM,51.3,29.3,43,30.51,10.0,Calm,Calm,-,N/A,,Clear,0,2012-11-17 21:55:00
5:15 PM,50.4,29.1,44,30.51,10.0,Calm,Calm,-,N/A,,Clear,0,2012-11-17 22:15:00
5:35 PM,48.2,29.1,48,30.50,10.0,Calm,Calm,-,N/A,,Clear,0,2012-11-17 22:35:00
5:55 PM,42.1,29.5,61,30.51,10.0,Calm,Calm,-,N/A,,Clear,0,2012-11-17 22:55:00
6:15 PM,39.4,29.5,68,30.51,10.0,Calm,Calm,-,N/A,,Clear,0,2012-11-17 23:15:00
6:35 PM,39.2,30.2,70,30.51,10.0,Calm,Calm,-,N/A,,Clear,0,2012-11-17 23:35:00
6:55 PM,36.7,29.8,76,30.51,10.0,Calm,Calm,-,N/A,,Clear,0,2012-11-17 23:55:00
7:15 PM,36.0,30.2,80,30.51,10.0,Calm,Calm,-,N/A,,Clear,0,2012-11-18 00:15:00
7:35 PM,34.2,29.8,84,30.51,10.0,Calm,Calm,-,N/A,,Clear,0,2012-11-18 00:35:00
7:55 PM,35.2,30.2,82,30.51,10.0,Calm,Calm,-,N/A,,Clear,0,2012-11-18 00:55:00
8:15 PM,32.0,28.2,86,30.50,10.0,Calm,Calm,-,N/A,,Clear,0,2012-11-18 01:15:00
8:35 PM,34.2,30.9,88,30.51,10.0,Calm,Calm,-,N/A,,Clear,0,2012-11-18 01:35:00
8:55 PM,37.4,31.8,80,30.51,10.0,Calm,Calm,-,N/A,,Clear,0,2012-11-18 01:55:00
9:15 PM,39.6,32.0,74,30.51,10.0,Calm,Calm,-,N/A,,Clear,0,2012-11-18 02:15:00
9:55 PM,40.5,33.1,75,30.51,10.0,SE,3.5,-,N/A,,Clear,140,2012-11-18 02:55:00
10:15 PM,40.1,32.9,75,30.50,10.0,SE,3.5,-,N/A,,Clear,130,2012-11-18 03:15:00
10:35 PM,40.1,32.4,74,30.51,10.0,Calm,Calm,-,N/A,,Clear,0,2012-11-18 03:35:00
10:55 PM,39.4,32.0,75,30.51,10.0,Calm,Calm,-,N/A,,Clear,0,2012-11-18 03:55:00
11:15 PM,38.3,31.8,77,30.51,10.0,SSE,3.5,-,N/A,,Clear,150,2012-11-18 04:15:00
11:35 PM,37.8,32.0,80,30.50,10.0,SE,4.6,-,N/A,,Clear,140,2012-11-18 04:35:00
11:55 PM,37.2,31.1,79,30.51,7.0,Calm,Calm,-,N/A,,Clear,0,2012-11-18 04:55:00